Location: Lamy Ridge Observatory
(35.5010°N, 105.8759°W)
Time: 17:03:58
(UTC-06:00)

ACS3 Solar Sail - Pass Details

Date: 13 September 2024
Orbit: 963 x 1036 km, 97.4° (Epoch: 04 October)

Event Time Altitude Azimuth Distance (km) Brightness Sun altitude
Exits shadow 19:38:43 - 93° (E) 3,100 3.7 -6.1°
Reaches altitude 10° 19:40:26 10° 79° (E) 2,828 3.6 -6.5°
Drops below altitude 10° 19:44:34 10° 41° (NE) 2,837 3.9 -7.3°
Enters shadow 20:58:16 -43° 167° (SSE) 10,043 6.9 -21.8°
Maximum altitude 21:25:23 83° 78° (ENE) 1,042 1.8 -26.8°
